FW5672 Weather Reports


Display with metric or nautical units.
time (UTC)temp
F
wind
direction
speed
MPH
gust
MPH
rain 1hr
in
rain 24hr
in
rain mn
in
humidity
%
barometer
mb
20260505210031 76 304 4.0 11.0 0.00 0.00 0.00 47 1015.0
20260505204531 75 305 5.0 10.0 0.00 0.00 0.00 47 1015.1
20260505203029 75 297 4.0 9.0 0.00 0.00 0.00 47 1015.1
20260505201530 74 306 5.0 10.0 0.00 0.00 0.00 48 1015.2
20260505200108 74 301 5.0 10.0 0.00 0.00 0.00 49 1015.3
20260505194605 73 312 5.0 11.0 0.00 0.00 0.00 50 1015.4
20260505190035 69 284 4.0 9.0 0.00 0.00 0.00 56 1015.5
20260505184646 69 281 5.0 11.0 0.00 0.00 0.00 57 1015.6
20260505183032 68 288 5.0 12.0 0.00 0.00 0.00 58 1015.6
20260505181531 67 300 5.0 10.0 0.00 0.00 0.00 59 1015.6
20260505174530 67 307 4.0 9.0 0.00 0.00 0.00 57 1015.7
20260505173029 69 17 3.0 7.0 0.00 0.00 0.00 56 1015.6
20260505171528 69 33 1.0 5.0 0.00 0.00 0.00 56 1015.6
20260505163030 68 299 2.0 5.0 0.00 0.00 0.00 58 1015.7
20260505161530 67 356 2.0 7.0 0.00 0.00 0.00 58 1015.7
20260505153108 65 29 0.0 4.0 0.00 0.00 0.00 64 1015.3
20260505151532 64 108 0.0 4.0 0.00 0.00 0.00 70 1015.3
20260505124604 52 92 3.0 6.0 0.00 0.00 0.00 85 1013.7
20260505121608 52 104 3.0 6.0 0.00 0.00 0.00 83 1013.5
20260505120031 53 95 5.0 7.0 0.00 0.00 0.00 83 1013.5
20260505114529 52 90 4.0 6.0 0.00 0.00 0.00 83 1013.4
20260505111604 53 55 2.0 3.0 0.00 0.00 0.00 80 1013.2
20260505101530 55 43 1.0 3.0 0.00 0.00 0.00 78 1012.8
20260505093034 56 91 1.0 4.0 0.00 0.00 0.00 74 1012.7
20260505091529 57 342 0.0 2.0 0.00 0.00 0.00 72 1012.5
20260505090030 58 268 1.0 3.0 0.00 0.00 0.00 71 1012.4
20260505084531 59 307 2.0 4.0 0.00 0.00 0.00 70 1012.5
20260505083029 59 279 2.0 5.0 0.00 0.00 0.00 70 1012.5
20260505081531 59 252 2.0 5.0 0.00 0.00 0.00 70 1012.5
20260505080031 58 288 3.0 8.0 0.00 0.00 0.00 72 1012.5
20260505074530 58 280 0.0 4.0 0.00 0.00 0.00 71 1012.4
20260505073031 58 302 0.0 2.0 0.00 0.00 0.00 70 1012.3
20260505071532 59 75 1.0 3.0 0.00 0.00 0.00 67 1012.3
20260505070107 60 360 1.0 3.0 0.00 0.00 0.00 65 1012.1
20260505064534 61 81 1.0 5.0 0.00 0.00 0.00 63 1012.1
20260505063029 62 251 2.0 5.0 0.00 0.00 0.00 60 1012.1
20260505060029 64 222 3.0 9.0 0.00 0.00 0.00 56 1012.0
20260505054531 65 265 3.0 7.0 0.00 0.00 0.00 55 1011.8
20260505053106 65 239 4.0 8.0 0.00 0.00 0.00 54 1011.8
20260505051645 65 243 4.0 10.0 0.00 0.00 0.00 53 1011.7
20260505041535 68 232 5.0 13.0 0.00 0.00 0.00 49 1011.2
20260505040042 68 238 6.0 11.0 0.00 0.00 0.00 49 1011.0
20260505034528 68 239 6.0 12.0 0.00 0.00 0.00 49 1010.7
20260505033107 69 242 4.0 11.0 0.00 0.00 0.00 47 1010.6
20260505031530 70 246 4.0 11.0 0.00 0.00 0.00 46 1010.4
20260505030038 71 247 6.0 17.0 0.00 0.00 0.00 44 1010.2
20260505024531 72 242 5.0 12.0 0.00 0.00 0.00 43 1010.1
20260505021532 75 241 8.0 16.0 0.00 0.00 0.00 39 1010.0
20260505020033 76 243 9.0 18.0 0.00 0.00 0.00 37 1009.9
20260505014645 77 245 9.0 18.0 0.00 0.00 0.00 36 1009.9
20260505013109 78 235 12.0 23.0 0.00 0.00 0.00 35 1010.0
20260505011533 79 245 9.0 18.0 0.00 0.00 0.00 36 1009.9
20260505010028 80 241 9.0 17.0 0.00 0.00 0.00 38 1009.9
20260505004530 80 280 6.0 15.0 0.00 0.00 0.00 41 1010.0
20260505003031 80 308 7.0 16.0 0.00 0.00 0.00 40 1009.9
20260505001533 81 314 8.0 15.0 0.00 0.00 0.00 40 1009.9
20260505000030 81 307 7.0 15.0 0.00 0.00 0.00 39 1010.0
20260504234531 82 300 7.0 14.0 0.00 0.00 0.00 39 1010.0
20260504233031 82 316 7.0 14.0 0.00 0.00 0.00 38 1010.0
20260504230032 82 314 6.0 14.0 0.00 0.00 0.00 37 1010.3
20260504224531 82 306 7.0 14.0 0.00 0.00 0.00 37 1010.5
20260504223032 82 301 7.0 14.0 0.00 0.00 0.00 36 1010.6
20260504221536 82 285 6.0 14.0 0.00 0.00 0.00 35 1010.8
20260504220031 83 283 6.0 13.0 0.00 0.00 0.00 35 1010.9
20260504214531 83 279 5.0 12.0 0.00 0.00 0.00 33 1011.1
20260504213031 83 286 5.0 9.0 0.00 0.00 0.00 33 1011.2
20260504211534 83 299 4.0 8.0 0.00 0.00 0.00 32 1011.3